Location: Bright Sky Observatory
(40.7821°N, 74.2425°W)
Time: 09:40:12
(UTC-04:00)

Daily predictions for brighter satellites

Satellite Brightness Start Highest point End
(mag) Time Altitude Azimuth Time Altitude Azimuth Time Altitude Azimuth
Meteor 1-22 Rocket 4.1 19:05:18 10° S 19:10:35 69° E 19:15:51 10° NNE
MSX 4.2 19:07:01 10° S 19:12:44 75° WSW 19:18:31 10° NNW
USA 215 3.8 19:06:55 10° ENE 19:12:58 39° SE 19:18:59 10° SSW
Cosmos 2369 Rocket 3.9 19:10:53 10° NNE 19:14:10 15° NE 19:17:28 10° E
SKYMED 2 3.7 19:09:56 10° N 19:14:17 82° WNW 19:18:38 10° SSW
Cosmos 1707 3.8 19:12:45 10° NNW 19:16:30 51° W 19:20:14 10° S
Cosmos 1408 Rocket 4.0 19:12:54 10° N 19:17:01 39° ENE 19:21:03 10° SSE
Meteor 1-24 Rocket 3.7 19:12:16 10° N 19:17:56 87° E 19:23:21 10° S
IDEFIX/ARIANE 42P 4.1 19:13:32 10° S 19:18:28 42° W 19:23:27 10° NNW
Cosmos 1603 4.3 19:15:30 10° SSE 19:20:38 35° ESE 19:25:49 10° NE
GPS 2-04 Rocket1 4.3 19:18:52 10° SSW 19:21:12 17° SSE 19:23:35 10° ESE
NOAA 12 4.1 19:21:02 10° SSE 19:26:14 67° ENE 19:31:29 10° N
Aureole 2 Rocket 3.6 19:25:10 10° SSW 19:29:30 61° WNW 19:33:44 10° NNE
Cosmos 1470 4.3 19:27:26 10° ESE 19:29:46 15° E 19:32:04 10° NE
SL-8 R/B 4.3 19:25:51 10° SSW 19:30:16 38° SE 19:34:16 12° ENE
ATLAS CENTAUR R/B 3.5 19:27:42 10° SW 19:32:26 82° SE 19:47:44 10° NE
Cosmos 724 4.4 19:28:48 10° SSW 19:34:32 56° ESE 19:40:28 10° NE
SeaSat 1 4.1 19:35:13 13° ESE 19:35:13 13° ESE 19:37:07 10° SE
SAR-Lupe-1 4.1 19:32:17 10° S 19:35:50 80° WSW 19:39:25 10° NNW
Cosmos 2333 Rocket 4.5 19:31:02 10° WSW 19:35:50 27° NW 19:40:40 10° N
SJ-6B 2.9 19:33:20 10° SSE 19:37:18 85° WSW 19:41:25 10° NNW
In-Cosmos 22 4.2 19:33:14 10° N 19:39:00 69° ENE 19:44:43 10° SSE
Resurs 1-3 4.0 19:35:03 10° SE 19:39:10 41° ENE 19:43:18 10° N
Meteor 1-29 3.5 19:37:16 10° NNE 19:40:32 35° E 19:43:46 10° SSE
Helios 1A 3.2 19:36:31 10° SE 19:40:33 48° ENE 19:44:38 10° N
FREGAT/IRIS 2.6 19:37:42 10° SSE 19:40:47 86° E 19:43:54 10° N
Resurs 01 Rocket 1.7 19:37:57 10° SSE 19:42:18 58° ENE 19:46:41 10° N
CZ-4B DEB 4.1 19:41:22 20° E 19:42:22 23° ENE 19:45:01 10° NNE
Cosmos 1674 3.8 19:41:44 10° NNE 19:44:59 25° ENE 19:46:25 20° ESE
Cosmos 1743 Rocket 4.0 19:42:00 10° N 19:46:11 39° ENE 19:50:18 10° SSE
NOSS 3-2 (A) 4.0 19:40:29 10° SW 19:46:30 64° NW 19:53:06 10° NNE
FengYun 1-2 T 4.3 19:42:42 10° SSE 19:48:04 55° ENE 19:53:25 10° N
Cosmos 1758 3.2 19:46:02 10° S 19:50:06 76° E 19:54:13 10° N
Cosmos 1452 Rocket 3.5 19:45:59 10° NNW 19:51:16 88° ENE 19:56:31 10° SSE
ATLAS 5 CENTAUR R/B 2.2 19:51:23 10° SW 19:56:08 69° NW 20:01:19 10° NNE
Abrixas 2.5 19:53:55 10° SW 19:56:50 55° SSE 19:57:41 38° E
Nadezhda 4 Rocket 4.0 19:54:00 10° N 20:00:14 62° E 20:06:21 10° SSE
Cosmos 1346 2.9 19:58:28 10° N 20:01:26 63° E 20:02:37 31° SSE
Meteor 2-12 Rocket 4.4 19:58:03 10° S 20:04:11 84° E 20:10:22 10° N
Meteor 1-21 Rocket 4.1 20:02:18 10° N 20:07:54 89° E 20:13:25 10° S
Cosmos 1092 Rocket 4.1 20:02:07 10° N 20:08:10 52° ENE 20:13:46 12° SSE
Cosmos 468 4.5 20:03:01 10° SSW 20:08:16 89° WNW 20:13:32 10° NNE
GP-B 3.9 20:04:34 10° NNE 20:08:19 30° E 20:08:19 30° E
ASTEX 1 3.4 20:06:54 10° NNE 20:11:44 56° E 20:16:31 10° S
Cosmos 1420 Rocket 3.9 20:07:06 10° NNW 20:12:26 77° ENE 20:16:34 17° SSE
SL-16 R/B 4.0 20:12:14 10° WSW 20:17:16 32° WNW 20:22:20 10° N
Helios 1B rocket 2.9 20:13:45 10° N 20:17:49 61° WNW 20:21:52 10° SSW
CENTAUR R/B 2.6 20:12:10 10° S 20:17:54 50° ESE 20:24:18 10° NE
Cosmos 1544 3.4 20:15:39 10° SSW 20:19:21 68° W 20:23:06 10° N
Cosmos 2026 Rocket 4.5 20:15:50 10° N 20:21:26 37° ENE 20:22:36 34° E
Cosmos 1634 Rocket 4.1 20:17:15 10° SSE 20:23:15 52° E 20:29:16 10° NNE
CZ-2D R/B 3.1 20:24:44 49° SSE 20:25:41 75° ENE 20:29:35 10° N
Spot 2 Rocket 4.4 20:22:30 10° S 20:27:21 49° W 20:32:15 10° NNW
OAO 3 Rocket 3.9 20:24:42 10° WSW 20:29:08 39° S 20:30:04 35° SSE
Cosmos 1048 Rocket 4.0 20:25:49 10° SSW 20:31:08 85° WNW 20:36:25 10° NNE
Cosmos 1269 Rocket 4.2 20:26:25 10° SSW 20:31:41 72° WNW 20:36:59 10° NNE
FENGYUN 3A 3.7 20:28:51 11° S 20:33:56 81° WSW 20:39:22 10° NNW
Envisat 4.0 20:39:20 29° NE 20:39:20 29° NE 20:42:45 10° N
H-2A R/B 2.9 20:39:09 57° SSW 20:39:51 74° W 20:43:44 10° NNW
Gbstr 26 Del rocket 3.2 20:38:09 10° SW 20:42:37 68° SE 20:42:57 66° ESE
Cosmos 2195 Rocket 4.5 20:37:12 10° N 20:43:30 64° E 20:45:27 44° SE
Cosmos 2151 3.6 20:39:36 10° N 20:42:41 44° NNE 20:42:41 44° NNE
Cosmos 1174 4.2 20:40:13 10° SSW 20:44:14 56° S 20:44:14 56° S
ISS -1.8 20:42:09 10° WSW 20:44:06 33° WSW 20:44:06 33° WSW
ALOS 2.9 20:42:16 15° S 20:45:57 54° W 20:50:33 10° NNW
BREEZE-M DEB (TANK) 3.4 20:39:54 10° WNW 20:51:04 59° N 20:52:03 49° NE
Cosmos 1842 Rocket 4.4 20:50:18 10° SSW 20:54:29 49° W 20:58:44 10° N
Cosmos 1500 Rocket 4.4 20:50:52 10° NNW 20:55:10 50° W 20:57:01 30° SSW
USA 215 3.6 20:49:42 10° NE 20:56:08 61° NW 21:02:32 10° WSW
Cosmos 158 Rocket 3.8 20:51:24 10° SSW 20:56:17 83° WNW 21:01:11 10° NNE
Cosmos 2369 Rocket 2.1 20:53:18 10° NNW 20:59:00 88° WSW 20:59:46 68° SSE
Cosmos 1943 Rocket 2.9 20:53:44 10° N 20:58:07 38° NE 20:58:07 38° NE
Cosmos 1943 3.2 20:53:37 10° SSW 20:59:15 82° WNW 21:04:55 10° NNE
Cosmos 1470 4.4 21:02:01 10° SW 21:05:33 33° WNW 21:09:06 10° NNW
Cosmos 2263 4.1 21:00:18 10° NNW 21:05:59 76° NE 21:05:59 76° NE
Cosmos 1627 Rocket 4.4 21:03:26 10° N 21:09:39 82° W 21:11:13 54° S
SL-8 R/B 4.3 21:08:00 10° WSW 21:12:17 54° NW 21:12:17 54° NW
SeaSat 1 3.8 21:07:46 10° NNE 21:15:13 30° SW 21:17:38 10° SSW
ERS-1 Rocket 3.6 21:15:21 48° N 21:15:21 48° N 21:18:59 10° N
Cosmos 1110 Rocket 4.5 21:18:06 10° NNW 21:22:20 57° NNW 21:22:20 57° NNW
Cosmos 2279 Rocket 4.4 21:46:26 58° WNW 21:46:26 58° WNW 21:52:04 10° N
CENTAUR R/B 3.9 22:03:09 10° WSW 22:08:47 35° NW 22:15:05 10° NNE
